{"data":{"norad_id":64946,"epoch":"2026-09-20T13:55:51.746592Z","epoch_age_seconds":117267,"freshness":"FRESH","line1":"1 64946U 25158Q   26263.58046003  .00013547  00000+0  42107-3 0  9991","line2":"2 64946  97.2844 121.8112 0001738  83.6311 276.5130 15.33454071 64717","mean_motion":15.33454071,"eccentricity":0.0001738,"inclination_deg":97.2844,"raan_deg":121.8112,"arg_perigee_deg":83.6311,"mean_anomaly_deg":276.513,"bstar":0.00042107,"rev_number":6471,"period_min":93.905649163717,"perigee_km":464.32675877349,"apogee_km":466.70561262084,"semimajor_km":6843.6531856972,"source":"CELESTRAK","updated_at":"2026-09-21T09:00:35.488924Z"}}